Location: Düngen
(52.0952°N, 10.0219°E)
Time: 19:32:43
(UTC+00:00)

Spot 2 Rocket - Pass Details

Date: 11 March 2026
Orbit: 751 x 767 km, 98.3° (Epoch: 20 April)

Event Time Altitude Azimuth Distance (km) Brightness Sun altitude
Exits shadow 20:07:49 76° 185° (S) 794 3.4 -26.0°
Maximum altitude 20:08:12 85° 254° (WSW) 777 3.4 -26.0°
Drops below altitude 10° 20:13:20 10° 344° (NNW) 2,314 6.6 -26.7°
Sets 20:15:38 0° 345° (NNW) 3,242 7.4 -27.0°
